NOAA 16 DEB, 42392

Orbit data source: Space-Track

NOAA 16 DEB, 42392 is space debris in SSO originally from a launch on Thu, 21 Sep 2000 UTC launched from the Air Force Western Test Range (AFWTR). Debris objects in space refer to the collection of defunct objects orbiting the Earth. Examples of debris include non-operational satellites, rocket bodies, and fragments generated from explosions, collisions, or faulty payload assembly.

Loading next visibility...
Identifier
42392, 2000-055SL
Orbit
SSO
Country
Flag of USUS
Related business
Manufacturer
Unknown
Mission
Spacecraft
Bus & Motor
Unknown
Mass
Unknown
Launch date (UTC)
2000-09-21 (25 years ago)
Launch vehicle
Unknown
Launch site
Air Force Western Test Range (AFWTR)
Object type
Payload
Rocket body
Debris
Shape & HBR
Unknown shape, 0.1 m
Radar Cross Section
Small (<0.1 m²)

Expand to show TLE details & history
Last TLE update: 2 days ago

TLE from 2 days ago
0 NOAA 16 DEB
1 42392U 00055SL  25292.37255178  .00171952  00000-0  15850-1 0  9993
2 42392  98.9489 146.8601 0011513  48.5920 311.6284 14.93700259500677
Epoch: 2025-10-19T08:56Z
TLE epoch observation values (Epoch: 2025-10-19T08:56:28.473Z)
Latitude
-0.00002°
Longitude
-15.34869°
Altitude
584.094 km
Speed
7.571 km/s
True Right ascension
09h 47m 26s
True Declination
0° 00' 00"
Sunlit
Object was in daylight at epoch
Visualization orbit readout
Latitude
Unknown
Longitude
Unknown
Altitude
Unknown
Speed
Unknown
Apparent Right ascension
Unknown
Apparent Declination
Unknown
Sunlit
N/A
Visualization observer readout
Local Sidereal Time
18:27:56
Azimuth
Unknown
Elevation
Unknown
Doppler factor
Unknown
Orbital elements
Apogee altitude
591.498 km
Perigee altitude
575.468 km
Semi-major axis
6,961.62 km
Eccentricity
0.00115
Inclination
98.9489°
RAAN
146.8601°
Arg. of periapsis
48.592°
True anomaly
311.52969°
Mean anomaly
311.6284°
Eccentric anomaly
311.57906°
Mean motion
3.73661 °/min
Orbital period
96.34 mins
BSTAR
0.01585
Loading maneuver chart data...
Computing Atmospheric mass density...
Loading historical data...
Loading historical data...
Loading historical data...
Loading historical data...
Loading historical data...
Loading historical data...
Loading historical data...

Documentation

Showing up to 5 results
|